Regional Weather Roundup
Issued by NWS Little Rock, AR

Home | Current Version | Previous Version | Text Only | Print | Product List | Glossary Off
Versions: 1 2 3 4 5 6 7 8 9 10 11 12 13 14 15 16 17 18 19 20 21 22 23 24 25 26 27 28 29 30 31 32 33

000
ASUS44 KLZK 250505
RWRLZK

WEATHER ROUNDUP FOR ARKANSAS
NATIONAL WEATHER SERVICE LITTLE ROCK AR
1100 PM CST FRI FEB 24 2017

NOTE: "FAIR" INDICATES FEW OR NO CLOUDS BELOW 12,000 FEET WITH NO
SIGNIFICANT WEATHER AND/OR OBSTRUCTIONS TO VISIBILITY.

ARZ001-003-010-029-250600-
NORTHWEST ARKANSAS

CITY           SKY/WX    TMP DP  RH WIND       PRES   REMARKS
FAYETTEVILLE   PTCLDY    29  20  69 NW10      30.08R WCI  20
FORT SMITH     CLEAR     38  21  50 NW13      30.09R
HARRISON       PTCLDY    32  21  64 NW15G23   30.00R WCI  22
BENTONVILLE    MOCLDY    30  19  64 NW10G18   30.07S WCI  21
ROGERS         CLOUDY    30  20  66 NW14G24   30.07R WCI  19
SILOAM SPGS    PTCLDY    28  18  64 NW10      30.09R WCI  19
HIGHFILL       MOCLDY    31  20  63 NW12      30.07R WCI  22
$$

ARZ004-005-016-250600-
NORTH CENTRAL ARKANSAS

CITY           SKY/WX    TMP DP  RH WIND       PRES   REMARKS
BATESVILLE     PTCLDY    45  25  45 W15G24    29.94R
FLIPPIN        CLOUDY    37  19  48 NW14G22   29.98R
MTN HOME       CLOUDY    36  22  56 N9G17     29.97R
$$

ARZ040-041-250600-
WEST CENTRAL ARKANSAS

CITY           SKY/WX    TMP DP  RH WIND       PRES   REMARKS
MENA           CLEAR     43  28  56 NW8       30.05R
MOUNT IDA      CLEAR     44  25  47 N9        30.00R
$$

ARZ009-017-025-026-028-250600-
NORTHEAST ARKANSAS

CITY           SKY/WX    TMP DP  RH WIND       PRES   REMARKS
CORNING        FAIR      45  32  61 NW23G33   29.88R
JONESBORO      CLEAR     49  29  46 NW20G28   29.87R
NEWPORT        CLEAR     47  30  51 NW25G31   29.91R
WALNUT RIDGE   PTCLDY    45  25  45 W28G33    29.89R
$$

ARZ022-023-033-042-044-250600-
CENTRAL ARKANSAS

CITY           SKY/WX    TMP DP  RH WIND       PRES   REMARKS
LITTLE ROCK    CLEAR     49  30  48 W17G25    29.96R
N LITTLE ROCK    N/A     48  31  51 NW10G23   29.96R
JACKSONVILLE   CLEAR     50  31  49 W14G22    29.94R
SEARCY         CLEAR     49  31  49 NW13      29.94R
HOT SPRINGS    CLEAR     47  28  47 NW10G21   30.00R
RUSSELLVILLE   PTCLDY    42  25  50 NW14G23   30.02R
CLINTON        FAIR      43  27  52 NW8G16    29.99R
$$

ARZ036-250600-
EAST ARKANSAS

CITY           SKY/WX    TMP DP  RH WIND       PRES   REMARKS
WEST MEMPHIS   PTCLDY    51  40  65 N8        29.86R
$$

ARZ050-053-066-070-073-250600-
SOUTHWEST ARKANSAS

CITY           SKY/WX    TMP DP  RH WIND       PRES   REMARKS
ARKADELPHIA    FAIR      49  30  48 NW16      30.01R
CAMDEN         CLEAR     52  28  40 NW9       29.98R
TEXARKANA      CLEAR     49  30  48 N9        30.03R
EL DORADO      CLEAR     53  33  46 NW14      29.97R
DE QUEEN       CLEAR     46  28  49 N8G21     30.05R
$$

ARZ056-057-069-250600-
SOUTHEAST ARKANSAS

CITY           SKY/WX    TMP DP  RH WIND       PRES   REMARKS
PINE BLUFF     CLEAR     51  32  48 NW20G25   29.94R
STUTTGART      CLEAR     52  30  43 W20G31    29.92R
MONTICELLO     CLEAR     54  31  41 NW13G20   29.92R

$$






USA.gov is the U.S. government's official web portal to all federal, state and local government web resources and services.